TimeCST,TemperatureF,Dew PointF,Humidity,Sea Level PressureIn,VisibilityMPH,Wind Direction,Wind SpeedMPH,Gust SpeedMPH,PrecipitationIn,Events,Conditions,WindDirDegrees,DateUTC
12:53 AM,42.1,32.0,67,30.26,10.0,NW,8.1,-,N/A,,Clear,310,2012-11-23 06:53:00
1:53 AM,39.9,30.9,70,30.27,10.0,WNW,8.1,-,N/A,,Clear,300,2012-11-23 07:53:00
2:53 AM,39.9,30.0,68,30.27,10.0,WNW,8.1,-,N/A,,Clear,290,2012-11-23 08:53:00
3:53 AM,39.9,27.0,60,30.28,10.0,NW,13.8,24.2,N/A,,Clear,310,2012-11-23 09:53:00
4:53 AM,36.0,18.0,48,30.33,10.0,NW,26.5,34.5,N/A,,Partly Cloudy,310,2012-11-23 10:53:00
5:53 AM,32.0,15.1,50,30.36,10.0,NW,19.6,31.1,N/A,,Mostly Cloudy,320,2012-11-23 11:53:00
6:53 AM,30.0,14.0,51,30.41,10.0,NW,21.9,29.9,N/A,,Clear,320,2012-11-23 12:53:00
7:53 AM,28.9,14.0,54,30.44,10.0,NW,18.4,25.3,N/A,,Clear,320,2012-11-23 13:53:00
8:53 AM,30.9,14.0,50,30.47,10.0,NNW,16.1,31.1,N/A,,Clear,330,2012-11-23 14:53:00
9:53 AM,32.0,15.1,50,30.49,10.0,NW,18.4,27.6,N/A,,Partly Cloudy,320,2012-11-23 15:53:00
10:53 AM,34.0,14.0,44,30.49,10.0,NW,13.8,24.2,N/A,,Clear,320,2012-11-23 16:53:00
11:53 AM,35.1,12.9,40,30.47,10.0,NW,16.1,26.5,N/A,,Clear,320,2012-11-23 17:53:00
12:53 PM,37.9,14.0,38,30.46,10.0,NNW,15.0,23.0,N/A,,Clear,330,2012-11-23 18:53:00
1:53 PM,37.9,12.0,35,30.44,10.0,NW,15.0,24.2,N/A,,Partly Cloudy,310,2012-11-23 19:53:00
2:53 PM,37.9,10.0,32,30.45,10.0,NNW,18.4,25.3,N/A,,Clear,330,2012-11-23 20:53:00
3:53 PM,37.0,9.0,31,30.44,10.0,NW,16.1,21.9,N/A,,Partly Cloudy,320,2012-11-23 21:53:00
4:53 PM,34.0,9.0,35,30.45,10.0,NW,11.5,-,N/A,,Scattered Clouds,320,2012-11-23 22:53:00
5:53 PM,30.9,9.0,40,30.46,10.0,NW,8.1,-,N/A,,Scattered Clouds,320,2012-11-23 23:53:00
6:53 PM,28.9,9.0,43,30.46,10.0,NNW,8.1,-,N/A,,Scattered Clouds,330,2012-11-24 00:53:00
7:53 PM,28.0,9.0,45,30.47,10.0,NNW,6.9,-,N/A,,Partly Cloudy,330,2012-11-24 01:53:00
8:53 PM,26.1,9.0,49,30.45,10.0,NNW,5.8,-,N/A,,Partly Cloudy,330,2012-11-24 02:53:00
9:53 PM,27.0,9.0,47,30.45,10.0,NW,4.6,-,N/A,,Partly Cloudy,320,2012-11-24 03:53:00
10:53 PM,27.0,9.0,47,30.45,10.0,NNW,5.8,-,N/A,,Partly Cloudy,330,2012-11-24 04:53:00
11:53 PM,26.1,9.0,49,30.43,10.0,NW,4.6,-,N/A,,Clear,310,2012-11-24 05:53:00